Regional Weather Roundup
Issued by NWS

Home | Current Version | Previous Version | Text Only | Print | Product List | Glossary Off
Versions: 1 2 3 4 5 6 7 8 9 10 11 12 13 14 15 16 17 18 19 20 21 22 23 24 25 26 27 28 29 30 31 32 33 34 35 36 37 38 39 40 41 42 43 44 45 46 47 48 49 50

000
ASUS43 KLMK 231910
RWRKY
KENTUCKY REGIONAL WEATHER ROUNDUP
NATIONAL WEATHER SERVICE LOUISVILLE KY
300 PM EDT SAT AUG 23 2014

NOTE "FAIR" INDICATES FEW OR NO CLOUDS BELOW 12,000 FEET
WITH NO SIGNIFICANT WEATHER AND/OR OBSTRUCTIONS TO VISIBILITY.

KYZ001>023-026-027-061>063-070>075-232000-
WESTERN AND SOUTH CENTRAL KENTUCKY

CITY           SKY/WX    TMP DP  RH WIND       PRES   REMARKS
PADUCAH        CLOUDY    90  77  65 CALM      29.96F HX 103
HENDERSON      MOSUNNY   93  77  59 SW3       29.94F HX 107
OWENSBORO      PTSUNNY   89  80  74 SE5       29.97F HX 105
HOPKINSVILLE   MOSUNNY   92  76  59 W8        29.97F HX 105
BOWLING GREEN  MOSUNNY   92  76  59 W5        29.97F HX 104
GLASGOW        PTSUNNY   89  73  59 S3        29.99F HX  96
$$

KYZ024-025-028>034-038-045-046-053-232000-
NORTH CENTRAL KENTUCKY

CITY           SKY/WX    TMP DP  RH WIND       PRES   REMARKS
LOUISVILLE/SDF PTSUNNY   89  75  63 SW6       29.97F HX  99
LOUISVILLE/LOU PTSUNNY   88  75  65 VRB3      29.98F HX  97
FORT KNOX      PTSUNNY   87  74  65 S3        29.98F HX  96
$$

KYZ035>037-039>044-047>052-055>060-089>105-232000-
NORTHEAST KENTUCKY

CITY           SKY/WX    TMP DP  RH WIND       PRES   REMARKS
LEXINGTON      SUNNY     91  70  49 W5        30.01F HX  96
COVINGTON      PTSUNNY   88  70  55 CALM      30.01S HX  93
FRANKFORT      MOSUNNY   87  72  60 CALM      29.99F HX  93
$$

KYZ054-064>069-076>088-106>120-232000-
SOUTHEAST KENTUCKY

CITY           SKY/WX    TMP DP  RH WIND       PRES   REMARKS
JACKSON        CLOUDY    80  72  76 CALM      30.04F
LONDON         MOSUNNY   89  71  55 NW6       30.02F HX  95
SOMERSET       MOSUNNY   86  70  58 W6        30.02F HX  90
MIDDLESBORO    PTSUNNY   87  73  63 N6        30.02S HX  94
MONTICELLO     PTCLDY    90  75  61 N7        30.03F HX 100
$$




USA.gov is the U.S. government's official web portal to all federal, state and local government web resources and services.